User: anonymous   Login
Location: *
(58.7167°N, 26.1833°E)
Time: 12:33:05
(UTC+00:00)
Language:

Cosmos 1437 Rocket - Orbit

View from above orbital plane
View from above orbital plane
View from above satellite
View from above satellite

Ground track
Ground track

The orbit data is extracted from the following two-line orbital elements,

1 13771U 83003B   19322.79490391 -.00000288  00000-0 -18621-4 0  9994
2 13771  81.1653  63.4423 0040046 315.4213  44.3793 15.10470459  7294
Epoch (UTC): 18 November 2019 19:04:39
Eccentricity: 0.0040046
inclination: 81.1653°
perigee height: 507 km
apogee height: 562 km
right ascension of ascending node: 63.4423°
argument of perigee: 315.4213°
revolutions per day: 15.10470459
mean anomaly at epoch: 44.3793°
orbit number at epoch: 729

The dashed part of the orbit path shows where the satellite is in the earth's shadow,  

DLR